Overview Statistics Trail Chart Weather Telemetry Raw packets
 

This is the latest recevied weather packets stored in our database for station/object K4WCH. If no packets are shown the sender has not sent any weather packets the latest 10 day(s).

<< 30 31 32 33 34 35 36 >>
Time Temp. Humidity Pressure Rain* Wind** Luminosity Snow
1788456662 29.44° C 80% 1015.3 hPa 0 mm - 511 W/m² -
1788456362 28.89° C 81% 1015.3 hPa 0 mm - 488 W/m² -
1788456057 29.44° C 81% 1015.3 hPa 0 mm - 410 W/m² -
1788455757 28.89° C 82% 1015.5 hPa 0 mm - 439 W/m² -
1788455453 28.89° C 82% 1015.4 hPa 0 mm - 447 W/m² -
1788455152 28.89° C 83% 1015.2 hPa 0 mm - 496 W/m² -
1788454847 28.89° C 82% 1015.4 hPa 0 mm - 490 W/m² -
1788454544 28.33° C 84% 1015.3 hPa 0 mm - 478 W/m² -
1788454241 28.89° C 82% 1015.4 hPa 0 mm - 455 W/m² -
1788453940 28.89° C 84% 1015.5 hPa 0 mm - 510 W/m² -
1788453637 28.89° C 84% 1015.8 hPa 0 mm - 530 W/m² -
1788453331 28.33° C 85% 1015.9 hPa 0 mm - 481 W/m² -
1788453027 28.33° C 84% 1016 hPa 0 mm - 469 W/m² -
1788452723 28.33° C 84% 1016.2 hPa 0 mm - 592 W/m² -
1788452419 28.33° C 86% 1016.1 hPa 0 mm - 599 W/m² -
1788452114 27.78° C 87% 1016.1 hPa 0 mm - 319 W/m² -
1788451810 27.78° C 87% 1016.2 hPa 0 mm - 372 W/m² -
1788451508 27.78° C 88% 1016.2 hPa 0 mm - 300 W/m² -
1788451203 27.78° C 88% 1016.2 hPa 0 mm - 328 W/m² -
1788450902 27.78° C 88% 1016.3 hPa 0 mm - 259 W/m² -
1788450598 27.78° C 87% 1016.2 hPa 0 mm - 276 W/m² -
1788450294 27.78° C 87% 1016 hPa 0 mm - 285 W/m² -
1788449990 27.22° C 87% 1016.1 hPa 0 mm - 274 W/m² -
1788449685 27.22° C 88% 1016.1 hPa 0 mm - 244 W/m² -
1788449381 27.22° C 87% 1016.1 hPa 0 mm - 243 W/m² -

* Rain latest hour (hover to see other rain measurements)
** Current wind speed in m/s (hover to see current wind gust speed)